Weather History for La Porte, IN

Change the Weather History Date:

Wednesday, November 21, 2012

  Actual Average (KVPZ) Record (KVPZ)
Temperature  
Mean Temperature 42 °F 38 °F  
Max Temperature 53 °F 46 °F 62 °F (2010)
Min Temperature 32 °F 31 °F 16 °F (2000)
Degree Days  
Heating Degree Days 22 27  
Month to date heating degree days 464  
Since 1 July heating degree days 994  
Cooling Degree Days 0 0  
Month to date cooling degree days 0  
Year to date cooling degree days 713  
Moisture  
Dew Point 39 °F    
Average Humidity 95    
Maximum Humidity 100    
Minimum Humidity 73    
Precipitation  
Precipitation 0.00 in 0.09 in 0.44 in (2007)
Month to date precipitation 2.42  
Year to date precipitation 34.42  
Sea Level Pressure  
Sea Level Pressure 30.20 in    
Wind  
Wind Speed 2 mph ()    
Max Wind Speed 9 mph    
Max Gust Speed -    
Visibility 2.1 miles    
Events Fog , Snow    
T = Trace of Precipitation, MM = Missing Value Source: Averaged Metar Reports

Daily Weather History Graph

Daily Weather History Graph

Search for Another Location

Airport:

Trip Planner

Search our weather history database for the weather conditions in past years. The results will help you decide how hot, cold, wet, or windy it might be!

Date:

Astronomy

Nov. 21, 2012 Rise Set
Actual Time 6:43 AM CST 4:22 PM CST
Civil Twilight 6:13 AM CST 4:52 PM CST
Nautical Twilight 5:39 AM CST 5:26 PM CST
Astronomical Twilight 5:06 AM CST 5:59 PM CST
Moon 12:42 PM CST (11/21) No Moon Set
Length of Visible Light 10h 39m
Length of Day
9h 38m
First Quarter, 62% of the Moon is Illuminated
Nov 21
First Quarter
Nov 28
Full
Dec 6
Last Quarter
Dec 13
New
Dec 19
First Quarter

Hourly Weather History & Observations

Time (CST) Temp. Windchill Dew Point Humidity Pressure Visibility Wind Dir Wind Speed Gust Speed Precip Events Conditions
12:15 AM 32.0 °F - 32.0 °F 100% 30.18 in 0.2 mi Calm Calm - N/A Fog Fog
12:35 AM 32.0 °F - 32.0 °F 100% 30.18 in 0.2 mi Calm Calm - N/A Fog Fog
12:55 AM 32.0 °F - 32.0 °F 100% 30.19 in 0.2 mi Calm Calm - N/A Snow Snow
1:15 AM 32.0 °F - 32.0 °F 100% 30.19 in 0.2 mi Calm Calm - N/A Snow Heavy Snow
1:35 AM 32.0 °F - 32.0 °F 100% 30.19 in 0.2 mi Calm Calm - N/A Fog Fog
1:55 AM 32.9 °F - 32.9 °F 100% 30.19 in 0.2 mi Calm Calm - N/A Snow Light Snow
2:15 AM 33.8 °F - 33.8 °F 100% 30.19 in 0.5 mi Calm Calm - N/A Fog Fog
2:35 AM 34.2 °F - 34.2 °F 100% 30.20 in 0.2 mi Calm Calm - N/A Snow Light Snow
2:55 AM 34.7 °F - 34.7 °F 100% 30.19 in 0.2 mi Calm Calm - N/A Fog Fog
3:15 AM 34.7 °F - 34.7 °F 100% 30.19 in 0.2 mi Calm Calm - N/A Fog Fog
3:35 AM 34.0 °F - 34.0 °F 100% 30.19 in 0.2 mi Calm Calm - N/A Fog Fog
3:55 AM 34.2 °F - 34.2 °F 100% 30.19 in 0.2 mi Calm Calm - N/A Fog Fog
4:15 AM 34.0 °F - 34.0 °F 100% 30.20 in 0.2 mi Calm Calm - N/A Fog Fog
4:35 AM 34.0 °F - 34.0 °F 100% 30.20 in 0.2 mi Calm Calm - N/A Fog Fog
4:55 AM 33.8 °F - 33.8 °F 100% 30.21 in 0.2 mi Calm Calm - N/A Fog Fog
5:15 AM 33.3 °F - 33.3 °F 100% 30.21 in 0.2 mi Calm Calm - N/A Fog Fog
5:35 AM 32.4 °F - 32.4 °F 100% 30.22 in 0.2 mi Calm Calm - N/A Fog Fog
5:55 AM 32.0 °F - 32.0 °F 100% 30.21 in 0.2 mi Calm Calm - N/A Fog Fog
6:15 AM 32.0 °F - 32.0 °F 100% 30.21 in 0.2 mi Calm Calm - N/A Fog Fog
6:35 AM 32.0 °F - 32.0 °F 100% 30.22 in 0.2 mi Calm Calm - N/A Fog Fog
6:55 AM 32.0 °F - 32.0 °F 100% 30.22 in 0.2 mi Calm Calm - N/A Fog Fog
7:15 AM 32.0 °F - 32.0 °F 100% 30.23 in 0.2 mi Calm Calm - N/A Fog Fog
7:35 AM 32.0 °F - 32.0 °F 100% 30.23 in 0.2 mi Calm Calm - N/A Fog Fog
7:55 AM 32.0 °F - 32.0 °F 100% 30.24 in 0.2 mi Calm Calm - N/A Fog Fog
8:15 AM 33.1 °F - 33.1 °F 100% 30.25 in 0.2 mi Calm Calm - N/A Fog Fog
8:35 AM 34.0 °F - 33.8 °F 99% 30.26 in 0.2 mi Calm Calm - N/A Fog Fog
8:55 AM 35.2 °F - 35.1 °F 99% 30.26 in 0.2 mi Calm Calm - N/A Fog Fog
9:15 AM 36.5 °F - 36.1 °F 99% 30.26 in 0.2 mi Calm Calm - N/A Fog Fog
9:35 AM 37.6 °F - 37.4 °F 99% 30.26 in 0.2 mi Calm Calm - N/A Fog Fog
9:55 AM 38.5 °F - 38.3 °F 99% 30.26 in 0.2 mi Calm Calm - N/A Fog Fog
10:15 AM 39.9 °F 37.8 °F 39.6 °F 99% 30.26 in 0.2 mi SSW 3.5 mph - N/A Fog Fog
10:35 AM 41.2 °F 38.2 °F 41.0 °F 99% 30.26 in 0.2 mi SW 4.6 mph - N/A Fog Fog
10:55 AM 42.1 °F 38.4 °F 41.9 °F 99% 30.25 in 0.2 mi SW 5.8 mph - N/A Fog Fog
11:15 AM 42.6 °F 39.9 °F 42.1 °F 98% 30.25 in 0.5 mi SSW 4.6 mph - N/A Fog Fog
11:35 AM 43.7 °F 40.3 °F 43.3 °F 99% 30.23 in 1.2 mi South 5.8 mph - N/A   Overcast
11:55 AM 44.2 °F 41.0 °F 43.9 °F 99% 30.23 in 1.8 mi SW 5.8 mph - N/A   Overcast
12:15 PM 44.8 °F 42.4 °F 44.6 °F 99% 30.22 in 2.0 mi South 4.6 mph - N/A   Overcast
12:35 PM 45.9 °F 42.9 °F 45.7 °F 99% 30.22 in 2.5 mi South 5.8 mph - N/A   Overcast
12:55 PM 46.2 °F 44.1 °F 46.2 °F 100% 30.21 in 2.5 mi South 4.6 mph - N/A   Overcast
1:15 PM 47.7 °F - 47.5 °F 99% 30.21 in 3.0 mi South 5.8 mph - N/A   Scattered Clouds
1:35 PM 49.1 °F - 49.1 °F 100% 30.21 in 3.0 mi SW 6.9 mph - N/A   Clear
1:55 PM 50.5 °F - 50.4 °F 99% 30.20 in 4.0 mi SW 8.1 mph - N/A   Clear
2:15 PM 51.4 °F - 47.8 °F 87% 30.20 in 4.0 mi WSW 9.2 mph - N/A   Clear
2:35 PM 52.3 °F - 47.5 °F 84% 30.18 in 5.0 mi SSW 4.6 mph - N/A   Clear
2:55 PM 53.6 °F - 45.0 °F 73% 30.18 in 5.0 mi SSW 8.1 mph - N/A   Haze
3:15 PM 53.1 °F - 44.6 °F 73% 30.18 in 5.0 mi SW 6.9 mph - N/A   Haze
3:35 PM 52.7 °F - 44.2 °F 73% 30.18 in 5.0 mi SSW 8.1 mph - N/A   Haze
3:55 PM 51.8 °F - 43.9 °F 74% 30.17 in 5.0 mi South 5.8 mph - N/A   Haze
4:15 PM 49.8 °F - 43.3 °F 78% 30.17 in 4.0 mi South 3.5 mph - N/A   Haze
4:35 PM 49.1 °F - 43.9 °F 82% 30.17 in 5.0 mi South 4.6 mph - N/A   Haze
4:55 PM 48.2 °F - 44.2 °F 86% 30.17 in 5.0 mi SSE 4.6 mph - N/A   Clear
5:15 PM 47.7 °F - 43.9 °F 87% 30.16 in 5.0 mi South 4.6 mph - N/A   Clear
5:35 PM 47.3 °F - 43.9 °F 88% 30.16 in 5.0 mi South 4.6 mph - N/A   Clear
5:55 PM 46.9 °F - 43.7 °F 88% 30.17 in 5.0 mi South 4.6 mph - N/A   Clear
6:15 PM 46.8 °F - 43.7 °F 89% 30.16 in 4.0 mi South 5.8 mph - N/A   Scattered Clouds
6:35 PM 46.2 °F 44.1 °F 43.2 °F 89% 30.17 in 4.0 mi South 4.6 mph - N/A   Scattered Clouds
6:55 PM 45.1 °F 42.8 °F 42.8 °F 91% 30.16 in 4.0 mi South 4.6 mph - N/A   Clear
7:15 PM 45.7 °F 42.7 °F 43.3 °F 92% 30.16 in 4.0 mi South 5.8 mph - N/A   Clear
7:35 PM 45.0 °F 41.2 °F 43.0 °F 93% 30.16 in 4.0 mi South 6.9 mph - N/A   Clear
7:55 PM 44.8 °F 41.6 °F 42.4 °F 91% 30.16 in 4.0 mi South 5.8 mph - N/A   Clear
8:15 PM 44.2 °F 41.0 °F 42.4 °F 93% 30.16 in 4.0 mi SSW 5.8 mph - N/A   Clear
8:35 PM 44.4 °F 41.2 °F 42.3 °F 92% 30.16 in 4.0 mi SSW 5.8 mph - N/A   Clear
8:55 PM 43.9 °F 41.3 °F 41.7 °F 92% 30.16 in 4.0 mi SSW 4.6 mph - N/A   Clear
9:15 PM 43.7 °F 41.1 °F 42.1 °F 94% 30.16 in 4.0 mi SSW 4.6 mph - N/A   Clear
9:35 PM 43.9 °F 41.3 °F 42.1 °F 93% 30.16 in 4.0 mi SSW 4.6 mph - N/A   Clear
9:55 PM 43.3 °F 40.7 °F 41.5 °F 93% 30.16 in 3.0 mi SSW 4.6 mph - N/A   Clear
10:15 PM 43.2 °F 40.5 °F 41.7 °F 95% 30.16 in 3.0 mi SSW 4.6 mph - N/A   Clear
10:35 PM 41.9 °F 38.2 °F 40.6 °F 95% 30.16 in 3.0 mi SW 5.8 mph - N/A   Scattered Clouds
10:55 PM 43.0 °F 39.5 °F 42.1 °F 97% 30.14 in 3.0 mi SSW 5.8 mph - N/A   Mostly Cloudy
11:15 PM 43.5 °F 39.4 °F 42.1 °F 95% 30.14 in 3.0 mi SSW 6.9 mph - N/A   Scattered Clouds
11:35 PM 43.2 °F 39.0 °F 41.9 °F 95% 30.14 in 3.0 mi SSW 6.9 mph - N/A   Scattered Clouds
11:55 PM 42.8 °F 39.3 °F 41.4 °F 95% 30.14 in 3.0 mi SSW 5.8 mph - N/A   Clear